Location: Siloam Springs
(36.1881°N, 94.5403°W)
Time: 03:16:55
(UTC-05:00)

YUBILEINY - Visible Passes

Search period start: 21 May 2024 00:00
Search period end: 31 May 2024 00:00
Orbit: 1478 x 1509 km, 82.5° (Epoch: 20 May)

Date Brightness Start Highest point End Pass type
(mag) Time Alt. Az. Time Alt. Az. Time Alt. Az.
21 May ? 02:09:46 10° NNE 02:15:39 19° ENE 02:21:29 10° ESE visible
21 May ? 04:04:39 10° N 04:13:22 79° W 04:21:58 10° S visible
22 May ? 03:15:08 10° N 03:23:42 58° E 03:31:51 11° SSE visible
22 May ? 05:13:01 10° NNW 05:19:49 27° W 05:26:37 10° SW visible
23 May ? 02:26:12 10° NNE 02:33:42 31° ENE 02:41:06 10° SE visible
23 May ? 04:22:25 10° NNW 04:30:43 51° W 04:37:40 15° SSW visible
24 May ? 01:38:27 10° NNE 01:43:16 16° ENE 01:48:01 10° E visible
24 May ? 03:32:32 10° N 03:41:17 88° E 03:47:45 20° S visible
24 May ? 05:32:10 10° NW 05:36:47 16° WNW 05:41:25 10° WSW visible
25 May ? 02:43:10 10° N 02:51:32 48° ENE 02:57:54 18° SE visible
25 May ? 04:40:32 10° NNW 04:47:55 32° W 04:53:45 16° SW visible
26 May ? 01:54:29 10° NNE 02:01:24 26° ENE 02:08:07 10° ESE visible
26 May ? 03:50:11 10° NNW 03:58:43 62° W 04:03:58 26° SSW visible
27 May ? 01:07:39 10° NE 01:10:49 12° ENE 01:13:59 10° E visible
27 May ? 03:00:28 10° N 03:09:12 74° E 03:14:13 29° SSE visible
27 May ? 04:59:13 10° NW 05:04:57 20° W 05:10:05 12° WSW visible
28 May ? 02:11:16 10° N 02:19:19 40° ENE 02:24:32 21° SE visible
28 May ? 04:08:09 10° NNW 04:15:58 40° W 04:20:23 24° SW visible
29 May ? 01:22:53 10° NNE 01:29:04 21° ENE 01:34:53 11° ESE visible
29 May ? 03:18:00 10° N 03:26:40 74° W 03:30:44 36° S visible
29 May ? 05:19:56 10° WNW 05:21:49 11° WNW 05:23:42 10° W visible
30 May ? 02:28:26 10° N 02:37:03 62° E 02:41:07 34° SSE visible
30 May ? 04:26:32 10° NNW 04:33:05 25° W 04:36:59 18° WSW visible
